Regional Weather Roundup
Issued by NWS

Home | Current Version | Previous Version | Graphics & Text | Print | Product List | Glossary On
Versions: 1 2 3 4 5 6 7 8 9 10 11 12 13 14 15 16 17 18 19 20 21 22 23 24 25 26 27 28 29 30 31 32 33 34 35 36 37 38 39 40 41 42 43 44 45 46 47 48 49 50
000
ASUS43 KIND 291509
RWRIN

WEATHER ROUNDUP FOR INDIANA
NATIONAL WEATHER SERVICE INDIANAPOLIS IN
1100 AM EDT SUN MAY 29 2016

NOTE: "FAIR" INDICATES FEW OR NO CLOUDS BELOW 12,000 FEET WITH NO
SIGNIFICANT WEATHER AND/OR OBSTRUCTIONS TO VISIBILITY.

* - STATION DOES NOT REPORT WEATHER SUCH AS PRECIPITATION OR FOG.

+ - STATION NOT QUALITY CONTROLLED BY THE NATIONAL WEATHER SERVICE.
    USE DATA WITH CAUTION...ESPECIALLY DEWPOINT AND RELATIVE
    HUMIDITY OBSERVATIONS.

INZ001>003-010>013-019-020-291600-
NORTHWEST INDIANA

CITY           SKY/WX    TMP DP  RH WIND       PRES   REMARKS
KNOX *+        SUNNY     77  45  31 SW17        N/A
LA PORTE +     SUNNY     78  60  53 SW17      30.04S
MICHIGAN CITY+ SUNNY     77  61  57 SW12G17   30.03S
MONTICELLO +   MOSUNNY   79  55  43 SW12G17   30.05S
RENSSELAER +   SUNNY     79  55  44 SW12G18   30.06S
VALPARAISO     SUNNY     77  61  57 SW15G22   30.04S

$$

LMZ046-743>745-291600-
SOUTHERN LAKE MICHIGAN

STATION/POSITION TIME  TEMP    WIND        PRES    WAVE
                       AIR SEA DIR/SP/G            HT
                 (UTC) (F)     (DEG/KT/KT) (MB)    (FT)
BURNS HARBOR     1400   73     220/ 12/ 16 1016.6S
MICHIGAN CITY    1400   72     190/ 13/ 15   N/A
5NW MICH CITY    1500   64 57  230/  6/  8   N/A     1

$$

INZ004-005-014>016-021>024-291600-
NORTH CENTRAL INDIANA

CITY           SKY/WX    TMP DP  RH WIND       PRES   REMARKS
ELKHART          N/A     77  68  73 MISG      30.05S
GOSHEN         PTSUNNY   76  64  66 SW13      30.04F
LOGANSPORT +   MOSUNNY   79  64  61 SW12      30.08S
PERU/GRISSOM   SUNNY     79  67  65 W12       30.06S
ROCHESTER +    MOSUNNY   81  68  65 SW7       30.06F
SOUTH BEND     MOSUNNY   77  62  59 SW13      30.04S
WARSAW +       PTSUNNY   77  64  65 SW8       30.06S

$$

INZ006>009-017-018-025>027-291600-
NORTHEAST INDIANA

CITY           SKY/WX    TMP DP  RH WIND       PRES   REMARKS
ANGOLA *+        N/A     79  73  83 SW12      30.05F
AUBURN +       MOSUNNY   79  64  61 SW8       30.07S
FORT WAYNE     PTSUNNY   80  66  62 SW12G21   30.06F
HUNTINGTON +   MOSUNNY   78  67  66 SW9       30.06F

$$

INZ028-029-035-036-043>045-051>053-291600-
WEST CENTRAL INDIANA

CITY           SKY/WX    TMP DP  RH WIND       PRES   REMARKS
CRAWFORDSVL +  MOSUNNY   77  65  66 SW5       30.09S
GREENCASTLE +  SUNNY     77  70  78 CALM      30.10S
LAFAYETTE      MOSUNNY   78  61  55 W12       30.06S
TERRE HAUTE    SUNNY     78  64  61 CALM      30.09S

$$

INZ030>032-037>040-046>048-054>057-064-065-291600-
CENTRAL INDIANA

CITY           SKY/WX    TMP DP  RH WIND       PRES   REMARKS
CP ATTERBURY + MOSUNNY   77  68  73 SW6       30.11S
COLUMBUS       SUNNY     77  70  78 SW9       30.10F
FISHERS *+     MOSUNNY   79  70  73 W5        30.09S
FRANKFORT +      N/A     80  54  40 W9        30.09F
GREENWOOD *+   MOSUNNY   79  68  69 W8        30.10S
INDIANAPOLIS   MOSUNNY   78  69  73 SW9       30.08S
-EAGLE CREEK   MOSUNNY   78  67  68 SW7       30.08S
KOKOMO *+      MOSUNNY   79  66  65 SW12      30.07S
MARION +       MOSUNNY   79  67  66 SW15      30.08F
SHELBYVILLE    SUNNY     80  66  62 SW10      30.09S
ZIONSVILLE +   MOSUNNY   76  68  77 W10       30.10S

$$

INZ033-034-041-042-049-050-058-059-291600-
EAST CENTRAL INDIANA

CITY           SKY/WX    TMP DP  RH WIND       PRES   REMARKS
MUNCIE         MOSUNNY   79  66  64 SW9       30.08F

$$

INZ060-061-067>069-081>083-085>088-291600-
SOUTHWEST INDIANA

CITY           SKY/WX    TMP DP  RH WIND       PRES   REMARKS
EVANSVILLE     SUNNY     79  67  66 S6        30.10S
HUNTINGBURG *+ MOSUNNY   79  70  73 CALM      30.10F
WASHINGTON +   MOSUNNY   78  70  76 SW7       30.09F

$$

INZ062-063-066-070>080-084-089>092-291600-
SOUTH CENTRAL AND SOUTHEAST INDIANA

CITY           SKY/WX    TMP DP  RH WIND       PRES   REMARKS
BEDFORD +      MOSUNNY   79  75  89 SW7       30.10F
BLOOMINGTON    PTSUNNY   78  67  68 SW6       30.10S
MADISON *+     SUNNY     79  64  61 S6        30.13F
NORTH VERNON + SUNNY     81  73  78 CALM      30.11F
SEYMOUR +      SUNNY     81  68  65 SW7       30.10F

$$





USA.gov is the U.S. government's official web portal to all federal, state and local government web resources and services.